Location: Newark
(36.1358°N, 115.1208°W)
Time: 14:39:34
(UTC+00:00)

Vanguard 1 Rocket - Pass Details

Date: 24 February 2020
Orbit: 650 x 4226 km, 34.3° (Epoch: 06 April)

Event Time Altitude Azimuth Distance (km) Brightness Sun altitude
Rises 15:02:12 0° 271° (W) 3,000 9.5 7.9°
Reaches altitude 10° 15:04:59 10° 253° (WSW) 2,042 8.8 8.4°
Maximum altitude 15:08:12 20° 205° (SSW) 1,570 8.6 9.0°
Drops below altitude 10° 15:11:49 10° 158° (SSE) 2,341 10.2 9.7°
Sets 15:15:21 0° 142° (SE) 3,620 11.6 10.4°
